This demonstration page uses our WeatherBlox Daily Observations layout. Learn more.

Left ArrowRight Arrow

41.55636, -103.73856

Hourly Observations for July 20, 2015

Temp ( °F °C ) Dew Point ( °F °C ) Humidity (%) Winds ( mph kmh ) Pressure ( in mb ) Visibility ( mi km ) Precip ( " mm )
12:53 am 00:53 Partly Cloudy 67 19.4 47 8.3 49 49 W 6 9 29.98 1015 10 16.0934 0 0
1:53 am 01:53 Mostly Cloudy 63 17.2 48 8.9 58 58 NW 7 11 29.99 1016 10 16.0934 0 0
2:53 am 02:53 Clear 59 15 49 9.4 69 69 WNW 10 17 30 1016 10 16.0934 0 0
3:53 am 03:53 Clear 56 13.3 49 9.4 77 77 NW 7 11 30.01 1016 10 16.0934 0 0
4:53 am 04:53 Clear 54 12.2 49 9.4 83 83 NW 6 9 30.01 1016 10 16.0934 0 0
5:53 am 05:53 Sunny 54 12.2 49 9.4 83 83 NNW 7 11 30.03 1017 10 16.0934 0 0
6:53 am 06:53 Sunny 58 14.4 50 10 75 75 WNW 7 11 30.04 1017 10 16.0934 0 0
7:53 am 07:53 Sunny 64 17.8 49 9.4 58 58 W 9 15 30.06 1018 10 16.0934 0 0
8:53 am 08:53 Sunny 70 21.1 50 10 49 49 W 7 11 30.07 1018 10 16.0934 0 0
9:53 am 09:53 Sunny 74 23.3 53 11.7 48 48 NW 3 6 30.06 1018 10 16.0934 0 0
10:53 am 10:53 Sunny 79 26.1 53 11.7 41 41 NE 8 13 30.05 1018 10 16.0934 0 0
11:53 am 11:53 Sunny 80 26.7 52 11.1 38 38 ESE 5 7 30.04 1017 10 16.0934 0 0
12:53 pm 12:53 Sunny 82 27.8 51 10.6 34 34 Calm 30.02 1017 10 16.0934 0 0
1:53 pm 13:53 Sunny 82 27.8 52 11.1 35 35 ESE 7 11 30.01 1016 10 16.0934 0 0
2:53 pm 14:53 Sunny 83 28.3 52 11.1 34 34 S 5 7 30.01 1016 9 14.48406 0 0
3:53 pm 15:53 Sunny 84 28.9 53 11.7 34 34 SSE 9 15 29.99 1016 10 16.0934 0 0
4:53 pm 16:53 Sunny 83 28.3 52 11.1 34 34 SE 7 11 29.98 1015 10 16.0934 0 0
5:53 pm 17:53 Sunny 82 27.8 53 11.7 37 37 ESE 7 11 29.97 1015 10 16.0934 0 0
6:53 pm 18:53 Sunny 82 27.8 56 13.3 41 41 ESE 7 11 29.95 1014 10 16.0934 0 0
7:53 pm 19:53 Sunny 77 25 61 16.1 58 58 ESE 6 9 29.96 1014 10 16.0934 0 0
8:53 pm 20:53 Clear 70 21.1 61 16.1 73 73 E 7 11 29.95 1014 10 16.0934 0 0
9:53 pm 21:53 Clear 67 19.4 60 15.6 79 79 E 8 13 29.96 1015 10 16.0934 0 0
10:53 pm 22:53 Clear 67 19.4 57 13.9 71 71 ESE 10 17 29.95 1014 10 16.0934 0 0
11:53 pm 23:53 Clear 66 18.9 57 13.9 73 73 ESE 9 15 29.96 1015 10 16.0934 0 0

Powered by AerisWeather